Location: B?dimalle
(17.1788°N, 80.5377°E)
Time: 17:38:17
(UTC+00:00)

Transit 2A Rocket - Visible Passes

Search period start: 13 November 2024 00:00
Search period end: 23 November 2024 00:00
Orbit: 584 x 906 km, 66.7° (Epoch: 12 November)

Date Brightness Start Highest point End Pass type
(mag) Time Alt. Az. Time Alt. Az. Time Alt. Az.
13 Nov 4.5 13:36:02 10° NNW 13:40:43 84° WSW 13:42:54 29° SSE visible
14 Nov 5.0 12:51:47 10° N 12:56:10 39° ENE 13:00:16 10° SE visible
15 Nov 6.9 13:50:06 10° NW 13:53:43 23° WSW 13:57:10 10° SSW visible
16 Nov 5.2 13:04:49 10° NNW 13:09:21 57° WSW 13:13:36 10° S visible
17 Nov 4.7 12:20:18 10° NNW 12:24:52 56° ENE 12:29:07 10° SE visible
18 Nov 7.7 13:19:29 10° WNW 13:22:17 16° WSW 13:24:59 10° SW visible
19 Nov 8.3 00:13:27 10° SSE 00:17:57 22° ESE 00:22:29 10° ENE visible
19 Nov 6.2 12:33:41 10° NW 12:37:56 39° WSW 12:41:57 10° S visible
19 Nov 9.1 23:33:24 10° ESE 23:33:35 10° ESE 23:33:48 10° ESE visible
21 Nov 8.4 12:49:35 10° W 12:50:49 11° WSW 12:52:01 10° WSW visible
21 Nov 7.5 23:41:27 10° SSE 23:46:33 30° ESE 23:51:42 10° NE visible
22 Nov 8.4 22:59:06 10° SE 23:02:11 14° ESE 23:05:15 10° ENE visible
